Torna al catalogo

CZ-2C DEB

AttivoSSO
NORAD 36093·DEBRIS·🇨🇳 China

Lanciato Nov 12, 2009 da Jiuquan Satellite Launch Center

Loading…

Prossimi Passaggi (prossime 24 ore)

TLE

AggiornatoSource: Space-Track

Epoca: Sep 13, 2026, 17:54 UTC

1 36093U 09061F   26256.74623531  .00002097  00000-0  54278-3 0  9996
2 36093  98.1383 338.8535 0114239 188.1526 171.7814 14.47034054879062

Traccia CZ-2C DEB in tempo reale con AllMySat

Download on the App Store